Total_Precipitation_Accumulation
0.18 0.20 0.29 0.42 0.40 0.27 0.11 0.03 0.02 0.02 0.03 0.05 0.06 0.08 0.07 0.07 0.11 0.22 0.18 0.13 0.11 0.14 0.24 0.46 0.69 0.83 0.81 0.74 0.65 0.56 0.53 0.48 0.48 0.52 0.51 0.50 0.45 0.45 0.47 0.50 0.51 0.55 0.56 0.57 0.65 0.62 0.60 0.52 0.41
0.21 0.32 0.51 0.60 0.44 0.27 0.11 0.03 0.02 0.03 0.04 0.05 0.07 0.08 0.08 0.09 0.10 0.15 0.21 0.20 0.17 0.20 0.30 0.46 0.69 0.88 0.89 0.83 0.76 0.69 0.72 0.66 0.61 0.62 0.64 0.61 0.59 0.57 0.58 0.58 0.57 0.57 0.55 0.54 0.55 0.47 0.43 0.34 0.28
0.36 0.51 0.70 0.66 0.48 0.26 0.11 0.04 0.04 0.04 0.05 0.07 0.08 0.09 0.11 0.14 0.14 0.17 0.25 0.30 0.32 0.33 0.41 0.60 0.79 0.95 0.99 0.90 0.89 0.85 0.88 0.86 0.80 0.74 0.75 0.77 0.75 0.68 0.64 0.59 0.60 0.55 0.52 0.47 0.44 0.35 0.27 0.23 0.20
0.59 0.76 0.79 0.66 0.47 0.23 0.10 0.06 0.07 0.07 0.07 0.08 0.11 0.17 0.17 0.16 0.19 0.23 0.33 0.41 0.44 0.47 0.54 0.74 0.92 1.05 1.08 0.97 0.94 0.95 0.97 1.00 0.97 0.86 0.83 0.86 0.86 0.77 0.63 0.59 0.55 0.49 0.45 0.43 0.37 0.30 0.24 0.20 0.20
0.85 0.97 0.81 0.62 0.41 0.21 0.10 0.09 0.10 0.11 0.11 0.12 0.15 0.21 0.25 0.22 0.24 0.36 0.51 0.59 0.61 0.69 0.76 0.90 1.12 1.29 1.32 1.21 1.13 1.09 1.06 1.06 1.08 0.99 0.90 0.92 0.96 0.94 0.74 0.60 0.51 0.44 0.41 0.37 0.34 0.28 0.24 0.21 0.20
1.11 1.11 0.86 0.55 0.33 0.21 0.11 0.10 0.11 0.14 0.14 0.16 0.22 0.27 0.36 0.33 0.36 0.46 0.68 0.79 0.82 0.89 0.96 1.12 1.36 1.44 1.53 1.44 1.33 1.29 1.22 1.13 1.11 1.11 1.05 1.01 1.03 1.04 0.85 0.63 0.52 0.47 0.41 0.37 0.35 0.32 0.25 0.22 0.22
1.11 1.12 0.83 0.43 0.28 0.24 0.13 0.12 0.15 0.16 0.16 0.19 0.25 0.35 0.47 0.51 0.60 0.66 0.84 1.02 1.10 1.17 1.28 1.34 1.47 1.58 1.73 1.57 1.38 1.35 1.34 1.28 1.20 1.17 1.13 1.05 1.03 0.99 0.85 0.64 0.56 0.53 0.46 0.39 0.37 0.37 0.32 0.27 0.24
1.11 1.21 0.82 0.42 0.26 0.27 0.19 0.16 0.18 0.20 0.21 0.21 0.30 0.42 0.52 0.61 0.78 0.94 1.10 1.22 1.39 1.47 1.58 1.57 1.57 1.63 1.81 1.76 1.50 1.33 1.24 1.24 1.27 1.21 1.05 0.86 0.85 0.89 0.81 0.59 0.53 0.53 0.48 0.41 0.39 0.39 0.38 0.32 0.24
1.13 1.21 0.80 0.44 0.32 0.29 0.25 0.26 0.24 0.23 0.31 0.34 0.40 0.47 0.58 0.75 1.01 1.26 1.43 1.51 1.68 1.81 1.85 1.85 1.77 1.68 1.76 1.81 1.60 1.49 1.36 1.30 1.28 1.24 1.01 0.85 0.86 0.85 0.76 0.55 0.42 0.47 0.45 0.42 0.41 0.44 0.42 0.34 0.25
1.15 0.98 0.59 0.39 0.36 0.35 0.30 0.32 0.33 0.38 0.44 0.50 0.59 0.67 0.80 1.06 1.38 1.54 1.63 1.67 1.76 1.91 1.97 2.03 1.92 1.86 1.87 1.88 1.77 1.71 1.57 1.44 1.36 1.23 1.11 1.00 0.92 0.90 0.79 0.65 0.45 0.43 0.44 0.45 0.46 0.46 0.49 0.39 0.28
0.83 0.71 0.51 0.40 0.38 0.39 0.39 0.37 0.38 0.47 0.51 0.50 0.59 0.79 1.06 1.39 1.73 1.76 1.90 2.01 1.97 2.10 2.17 2.23 2.11 2.08 2.03 1.98 1.84 1.75 1.62 1.54 1.49 1.43 1.23 1.15 1.09 1.00 0.98 0.85 0.70 0.60 0.49 0.49 0.47 0.49 0.44 0.37 0.30
0.60 0.49 0.47 0.45 0.40 0.43 0.45 0.45 0.48 0.49 0.49 0.50 0.58 0.78 1.13 1.50 1.76 1.83 2.03 2.18 2.27 2.35 2.46 2.44 2.37 2.32 2.22 2.11 1.93 1.73 1.58 1.48 1.44 1.42 1.39 1.30 1.22 1.11 0.99 0.88 0.75 0.68 0.56 0.51 0.48 0.44 0.39 0.35 0.35
0.50 0.41 0.41 0.48 0.49 0.46 0.45 0.45 0.53 0.47 0.46 0.54 0.65 0.90 1.17 1.54 1.87 2.02 2.24 2.37 2.48 2.61 2.65 2.70 2.62 2.49 2.29 2.21 2.10 1.79 1.58 1.40 1.37 1.41 1.40 1.34 1.22 1.11 1.03 0.93 0.87 0.78 0.65 0.57 0.54 0.49 0.43 0.39 0.39
0.41 0.39 0.46 0.54 0.60 0.51 0.49 0.49 0.54 0.51 0.50 0.61 0.75 0.95 1.16 1.52 1.99 2.19 2.46 2.67 2.59 2.80 2.91 2.99 2.87 2.69 2.37 2.15 2.12 1.93 1.69 1.49 1.40 1.35 1.34 1.39 1.33 1.22 1.17 0.98 0.93 0.89 0.80 0.73 0.67 0.61 0.57 0.52 0.48
0.45 0.54 0.59 0.63 0.66 0.55 0.57 0.66 0.57 0.53 0.50 0.59 0.73 0.93 1.13 1.45 1.87 2.16 2.41 2.57 2.72 2.88 3.09 3.16 3.16 2.98 2.59 2.27 2.14 2.00 1.83 1.69 1.54 1.30 1.23 1.28 1.37 1.42 1.41 1.16 1.02 0.95 0.92 0.92 0.87 0.80 0.77 0.68 0.58
0.71 0.85 0.79 0.56 0.62 0.60 0.70 0.74 0.51 0.50 0.54 0.55 0.63 0.83 1.02 1.23 1.60 1.94 2.30 2.50 2.67 2.95 3.11 3.19 3.22 3.16 2.89 2.51 2.32 2.13 1.92 1.81 1.71 1.51 1.36 1.27 1.32 1.48 1.59 1.34 1.14 1.06 1.04 1.01 0.94 0.86 0.82 0.73 0.66
0.99 0.82 0.63 0.48 0.49 0.62 0.63 0.65 0.53 0.49 0.56 0.51 0.53 0.68 0.94 1.10 1.32 1.60 1.99 2.33 2.47 2.79 3.03 3.28 3.26 3.18 3.09 2.85 2.64 2.46 2.20 2.02 1.87 1.64 1.47 1.45 1.43 1.50 1.66 1.43 1.22 1.16 1.13 1.04 1.03 0.97 0.90 0.79 0.72
0.77 0.49 0.43 0.45 0.45 0.53 0.50 0.44 0.48 0.54 0.56 0.52 0.53 0.60 0.79 1.02 1.09 1.31 1.64 2.10 2.29 2.58 2.89 3.09 3.38 3.35 3.40 3.32 3.05 2.82 2.61 2.31 2.06 1.79 1.56 1.53 1.52 1.52 1.66 1.57 1.34 1.27 1.25 1.12 1.02 1.02 1.05 1.02 0.92
0.61 0.50 0.39 0.33 0.37 0.48 0.43 0.37 0.41 0.45 0.53 0.54 0.54 0.57 0.63 0.82 0.96 1.16 1.47 1.85 2.15 2.32 2.63 2.80 3.04 3.27 3.36 3.29 2.97 2.69 2.52 2.46 2.29 1.99 1.76 1.73 1.67 1.58 1.62 1.66 1.51 1.32 1.28 1.23 1.12 1.08 1.06 1.12 1.18
0.76 0.69 0.48 0.35 0.31 0.45 0.45 0.39 0.39 0.42 0.49 0.51 0.53 0.52 0.55 0.64 0.79 0.98 1.34 1.56 1.79 2.04 2.23 2.55 2.66 2.97 3.03 2.95 2.91 2.76 2.69 2.63 2.52 2.34 2.03 1.88 1.84 1.74 1.65 1.60 1.58 1.42 1.30 1.34 1.36 1.29 1.21 1.15 1.18
0.80 0.67 0.55 0.48 0.42 0.51 0.57 0.53 0.40 0.39 0.40 0.39 0.41 0.41 0.47 0.52 0.60 0.76 1.07 1.37 1.51 1.77 2.06 2.20 2.35 2.60 2.87 2.93 3.08 3.17 3.11 2.85 2.58 2.42 2.32 2.12 2.00 1.93 1.78 1.67 1.66 1.59 1.43 1.31 1.38 1.44 1.41 1.40 1.39
0.83 0.49 0.53 0.58 0.75 0.74 0.58 0.71 0.46 0.35 0.34 0.34 0.37 0.34 0.38 0.46 0.51 0.60 0.71 0.98 1.22 1.42 1.80 2.12 2.32 2.49 2.68 3.00 3.00 2.89 2.75 2.57 2.29 2.28 2.36 2.35 2.23 2.11 1.93 1.85 1.83 1.74 1.62 1.48 1.46 1.50 1.57 1.61 1.59
0.74 0.49 0.58 0.68 0.84 0.85 0.55 0.62 0.46 0.29 0.32 0.34 0.36 0.35 0.42 0.52 0.55 0.55 0.58 0.74 0.95 1.15 1.51 1.86 2.13 2.44 2.67 2.80 2.82 2.84 2.64 2.46 2.41 2.35 2.36 2.27 2.16 2.13 2.07 1.98 2.01 1.92 1.79 1.73 1.73 1.70 1.73 1.74 1.71
0.81 0.84 0.91 0.97 1.29 1.29 0.52 0.50 0.45 0.34 0.37 0.39 0.38 0.38 0.44 0.52 0.56 0.54 0.56 0.66 0.83 0.96 1.19 1.55 1.83 2.00 2.29 2.60 2.63 2.61 2.59 2.54 2.51 2.31 2.23 2.25 2.20 2.12 2.06 2.10 2.12 2.09 2.01 1.89 1.86 1.86 1.89 1.90 1.86
1.21 1.70 2.24 2.16 1.86 1.00 0.34 0.39 0.42 0.35 0.40 0.44 0.44 0.45 0.46 0.46 0.48 0.49 0.54 0.62 0.76 0.90 1.03 1.21 1.43 1.58 1.78 2.06 2.25 2.27 2.34 2.43 2.36 2.26 2.06 2.02 2.01 1.99 1.92 1.92 2.04 2.11 2.08 2.05 2.02 1.99 1.95 1.97 1.98
1.22 1.45 1.72 1.41 0.87 0.49 0.32 0.37 0.38 0.34 0.41 0.45 0.45 0.44 0.42 0.46 0.48 0.46 0.46 0.53 0.64 0.75 0.90 1.02 1.14 1.27 1.46 1.66 1.83 2.01 2.13 2.27 2.28 2.25 2.04 1.87 1.80 1.81 1.93 1.86 1.78 1.86 1.96 2.00 2.00 1.97 1.91 1.90 1.88
1.12 1.11 0.96 1.21 0.77 0.49 0.38 0.31 0.26 0.23 0.27 0.36 0.39 0.37 0.38 0.45 0.48 0.45 0.44 0.45 0.55 0.62 0.72 0.84 0.97 1.08 1.20 1.37 1.56 1.74 1.86 1.94 2.01 2.09 2.08 1.93 1.80 1.75 1.76 1.70 1.64 1.60 1.64 1.78 1.88 1.84 1.80 1.80 1.80
0.93 0.91 1.14 1.60 1.27 0.74 0.39 0.26 0.33 0.30 0.28 0.34 0.38 0.42 0.46 0.48 0.48 0.44 0.44 0.47 0.54 0.56 0.60 0.72 0.88 0.94 1.00 1.11 1.26 1.40 1.55 1.73 1.82 1.87 1.86 1.83 1.79 1.72 1.67 1.56 1.46 1.42 1.43 1.48 1.59 1.63 1.61 1.62 1.60
0.92 1.13 1.31 1.30 1.00 0.87 0.61 0.47 0.43 0.38 0.34 0.36 0.39 0.43 0.47 0.49 0.48 0.48 0.50 0.56 0.62 0.58 0.60 0.68 0.78 0.90 0.97 1.03 1.11 1.17 1.20 1.31 1.49 1.65 1.69 1.70 1.72 1.68 1.61 1.52 1.43 1.37 1.31 1.30 1.31 1.32 1.41 1.48 1.47
0.78 0.84 1.06 1.41 1.03 0.73 0.69 0.62 0.45 0.38 0.34 0.33 0.36 0.39 0.40 0.42 0.44 0.50 0.56 0.56 0.59 0.62 0.65 0.71 0.75 0.83 0.95 1.00 1.05 1.11 1.13 1.12 1.21 1.34 1.47 1.57 1.66 1.60 1.57 1.52 1.43 1.34 1.28 1.24 1.22 1.19 1.22 1.27 1.31